Date String (YYYY-MM-DD hh:mm:ss) UTC,Instrument flags,Ambient pressure (hPa),Sample flow (lpm),Bypass flow (lpm),Sample temperature (°C),Ambient temperature (°C),ASC tube jacket temperature (°C),LED temperature (°C),Box temperature (°C),Sample RH (%),Span deviation,Mass concentration (μg/m³),Mass concentration (μg/m³),Mass concentration (μg/m³)
DateTimeUTC,F1_M11,P_M11,Q1_M11,Q2_M11,T1_M11,T2_M11,T3_M11,T4_M11,T5_M11,U1_M11,ZSPAN_M11,X0_M11,X2_M11,X1_M11
2022-05-18 12:00:00,,0827.5,4.99,0.00,30.4,29.1,00.0,39.5,32.2,21.5,0000.0,0011.53,0003.70,0002.01
2022-05-18 12:01:00,,0827.4,4.99,0.00,30.4,29.1,00.0,39.5,32.2,21.5,0000.0,0011.54,0003.71,0002.01
2022-05-18 12:02:00,,0827.4,5.00,0.00,30.4,29.1,00.0,39.5,32.2,21.4,0000.0,0011.80,0003.69,0001.97
2022-05-18 12:03:00,,0827.4,5.01,0.00,30.5,29.1,00.0,39.5,32.2,21.4,0000.0,0011.64,0003.72,0001.95
2022-05-18 12:04:00,,0827.4,4.99,0.00,30.4,29.1,00.0,39.5,32.2,21.4,0000.0,0011.36,0003.75,0001.92
2022-05-18 12:05:00,,0827.5,4.99,0.00,30.4,29.1,00.0,39.5,32.2,21.3,0000.0,0010.61,0003.73,0001.89
2022-05-18 12:06:00,,0827.6,5.00,0.00,30.5,29.1,00.0,39.5,32.2,21.3,0000.0,0009.93,0003.66,0001.86
2022-05-18 12:07:00,,0827.6,5.01,0.00,30.5,29.1,00.0,39.5,32.2,21.4,0000.0,0010.57,0003.65,0001.85
2022-05-18 12:08:00,,0827.6,5.00,0.00,30.5,29.1,00.0,39.5,32.2,21.5,0000.0,0010.67,0003.65,0001.86
2022-05-18 12:09:00,,0827.6,4.99,0.00,30.5,29.1,00.0,39.5,32.2,21.4,0000.0,0010.35,0003.64,0001.86
2022-05-18 12:10:00,,0827.5,5.00,0.00,30.5,29.1,00.0,39.5,32.2,21.3,0000.0,0010.18,0003.64,0001.89
2022-05-18 12:11:00,,0827.5,5.01,0.00,30.5,29.1,00.0,39.5,32.2,21.3,0000.0,0009.85,0003.63,0001.91
2022-05-18 12:12:00,,0827.5,5.00,0.00,30.5,29.1,00.0,39.5,32.2,21.3,0000.0,0009.80,0003.64,0001.91
2022-05-18 12:13:00,,0827.5,4.99,0.00,30.5,29.1,00.0,39.5,32.2,21.2,0000.0,0009.42,0003.62,0001.97
2022-05-18 12:14:00,,0827.5,5.00,0.00,30.5,29.1,00.0,39.5,32.2,21.2,0000.0,0009.19,0003.57,0001.98
2022-05-18 12:15:00,,0827.7,5.02,0.00,30.5,29.1,00.0,39.5,32.2,21.2,0000.0,0009.01,0003.53,0002.01
2022-05-18 12:16:00,,0827.6,5.00,0.00,30.5,29.1,00.0,39.5,32.2,21.1,0000.0,0009.44,0003.56,0002.06
2022-05-18 12:17:00,,0827.6,4.98,0.00,30.5,29.1,00.0,39.6,32.2,20.9,0000.0,0009.57,0003.55,0002.09
2022-05-18 12:18:00,,0827.7,5.00,0.00,30.5,29.1,00.0,39.6,32.2,21.0,0000.0,0008.83,0003.54,0002.11
2022-05-18 12:19:00,,0827.7,5.01,0.00,30.5,29.1,00.0,39.6,32.2,21.1,0000.0,0008.76,0003.55,0002.12
2022-05-18 12:20:00,,0827.7,4.99,0.00,30.5,29.1,00.0,39.6,32.2,21.0,0000.0,0009.05,0003.60,0002.15
2022-05-18 12:21:00,,0827.7,5.00,0.00,30.5,29.1,00.0,39.6,32.2,20.8,0000.0,0009.55,0003.60,0002.17
2022-05-18 12:22:00,,0827.7,4.99,0.00,30.5,29.1,00.0,39.6,32.2,20.8,0000.0,0010.01,0003.58,0002.18
2022-05-18 12:23:00,,0827.6,4.99,0.00,30.5,29.1,00.0,39.6,32.2,20.8,0000.0,0010.06,0003.59,0002.21
2022-05-18 12:24:00,,0827.6,5.01,0.00,30.5,29.1,00.0,39.6,32.2,20.5,0000.0,0010.05,0003.59,0002.21
2022-05-18 12:25:00,,0827.7,5.00,0.00,30.5,29.2,00.0,39.6,32.3,20.4,0000.0,0010.18,0003.62,0002.20
2022-05-18 12:26:00,,0827.7,5.01,0.00,30.5,29.2,00.0,39.6,32.3,20.6,0000.0,0010.31,0003.64,0002.21
2022-05-18 12:27:00,,0827.7,5.00,0.00,30.5,29.2,00.0,39.6,32.3,20.4,0000.0,0010.03,0003.66,0002.20
2022-05-18 12:28:00,,0827.7,5.00,0.00,30.5,29.2,00.0,39.6,32.3,20.2,0000.0,0009.72,0003.68,0002.21
2022-05-18 12:29:00,,0827.7,5.00,0.00,30.5,29.2,00.0,39.6,32.3,20.3,0000.0,0009.79,0003.69,0002.22
2022-05-18 12:30:00,,0827.7,5.01,0.00,30.5,29.2,00.0,39.6,32.3,20.3,0000.0,0010.02,0003.69,0002.22
2022-05-18 12:31:00,,0827.7,5.00,0.00,30.5,29.2,00.0,39.6,32.3,20.3,0000.0,0010.07,0003.67,0002.22
2022-05-18 12:32:00,,0827.7,5.00,0.00,30.5,29.2,00.0,39.6,32.3,20.3,0000.0,0009.61,0003.67,0002.21
2022-05-18 12:33:00,,0827.7,5.00,0.00,30.5,29.2,00.0,39.6,32.3,20.6,0000.0,0009.29,0003.66,0002.19
2022-05-18 12:34:00,,0827.7,4.99,0.00,30.5,29.3,00.0,39.6,32.3,20.9,0000.0,0010.40,0003.64,0002.17
2022-05-18 12:35:00,,0827.7,5.01,0.00,30.5,29.3,00.0,39.6,32.3,21.0,0000.0,0010.66,0003.60,0002.17
2022-05-18 12:36:00,,0827.7,5.00,0.00,30.5,29.3,00.0,39.6,32.3,21.1,0000.0,0011.01,0003.61,0002.19
2022-05-18 12:37:00,,0827.7,5.00,0.00,30.6,29.3,00.0,39.6,32.3,21.2,0000.0,0011.69,0003.60,0002.19
2022-05-18 12:38:00,,0827.7,5.00,0.00,30.6,29.3,00.0,39.6,32.3,21.3,0000.0,0011.59,0003.55,0002.20
2022-05-18 12:39:00,,0827.7,5.02,0.00,30.6,29.3,00.0,39.6,32.3,21.5,0000.0,0012.35,0003.52,0002.17
2022-05-18 12:40:00,,0827.7,4.99,0.00,30.6,29.3,00.0,39.6,32.3,21.3,0000.0,0012.27,0003.49,0002.17
2022-05-18 12:41:00,,0827.7,5.00,0.00,30.6,29.3,00.0,39.6,32.3,20.9,0000.0,0012.08,0003.49,0002.17
2022-05-18 12:42:00,,0827.7,5.00,0.00,30.6,29.3,00.0,39.6,32.3,20.7,0000.0,0012.73,0003.50,0002.16
2022-05-18 12:43:00,,0827.7,4.99,0.00,30.6,29.3,00.0,39.6,32.3,20.9,0000.0,0013.97,0003.54,0002.18
2022-05-18 12:44:00,,0827.8,4.99,0.00,30.6,29.3,00.0,39.6,32.3,21.0,0000.0,0014.14,0003.60,0002.20
2022-05-18 12:45:00,,0827.8,5.02,0.00,30.6,29.3,00.0,39.6,32.3,21.1,0000.0,0013.51,0003.65,0002.20
2022-05-18 12:46:00,,0827.9,5.01,0.00,30.6,29.3,00.0,39.6,32.3,21.1,0000.0,0013.00,0003.71,0002.22
2022-05-18 12:47:00,,0827.9,5.00,0.00,30.6,29.3,00.0,39.6,32.3,21.2,0000.0,0012.55,0003.67,0002.21
2022-05-18 12:48:00,,0827.8,5.00,0.00,30.6,29.3,00.0,39.7,32.3,21.2,0000.0,0011.73,0003.69,0002.22
2022-05-18 12:49:00,,0827.8,4.99,0.00,30.6,29.3,00.0,39.7,32.3,21.3,0000.0,0011.63,0003.72,0002.21
2022-05-18 12:50:00,,0827.8,4.99,0.00,30.6,29.3,00.0,39.7,32.4,21.3,0000.0,0011.33,0003.77,0002.24
2022-05-18 12:51:00,,0827.8,5.00,0.00,30.6,29.3,00.0,39.7,32.4,21.4,0000.0,0011.38,0003.84,0002.26
2022-05-18 12:52:00,,0827.7,5.00,0.00,30.6,29.3,00.0,39.7,32.4,21.5,0000.0,0011.83,0003.92,0002.27
2022-05-18 12:53:00,,0827.7,5.01,0.00,30.6,29.3,00.0,39.7,32.4,21.5,0000.0,0011.69,0003.93,0002.26
2022-05-18 12:54:00,,0827.7,5.01,0.00,30.6,29.3,00.0,39.7,32.4,21.2,0000.0,0011.71,0003.90,0002.24
2022-05-18 12:55:00,,0827.7,5.00,0.00,30.6,29.3,00.0,39.7,32.3,21.1,0000.0,0011.10,0003.85,0002.21
2022-05-18 12:56:00,,0827.7,5.00,0.00,30.6,29.3,00.0,39.7,32.3,21.2,0000.0,0010.98,0003.82,0002.20
2022-05-18 12:57:00,,0827.8,5.01,0.00,30.6,29.3,00.0,39.7,32.3,21.4,0000.0,0010.82,0003.75,0002.18
2022-05-18 12:58:00,,0827.7,5.01,0.00,30.6,29.3,00.0,39.7,32.4,21.5,0000.0,0010.90,0003.76,0002.17
2022-05-18 12:59:00,,0827.8,5.00,0.00,30.6,29.3,00.0,39.7,32.4,21.5,0000.0,0011.73,0003.72,0002.15
